| time (UTC) | temp F | wind direction | speed knots | gust knots | rain 1hr in | rain 24hr in | rain mn in | humidity % | barometer mb |
| 20260506103907 | 58 | 355 | 0.0 | 2.6 | 0.00 | 0.00 | 0.00 | 82 | 1019.2 |
| 20260506103400 | 58 | 0 | 0.0 | 0.9 | 0.00 | 0.00 | 0.00 | 82 | 1019.2 |
| 20260506102859 | 58 | 0 | 0.0 | 1.7 | 0.00 | 0.00 | 0.00 | 82 | 1019.1 |
| 20260506102359 | 58 | 0 | 0.0 | 1.7 | 0.00 | 0.00 | 0.00 | 82 | 1019.0 |
| 20260506101900 | 58 | 0 | 0.0 | 0.9 | 0.00 | 0.00 | 0.00 | 81 | 1018.9 |
| 20260506101404 | 58 | 351 | 0.0 | 1.7 | 0.00 | 0.00 | 0.00 | 81 | 1018.9 |
| 20260506100850 | 58 | 351 | 0.0 | 2.6 | 0.00 | 0.00 | 0.00 | 81 | 1019.0 |
| 20260506100348 | 58 | 351 | 0.0 | 3.5 | 0.00 | 0.00 | 0.00 | 81 | 1018.9 |
| 20260506095903 | 58 | 354 | 3.5 | 3.5 | 0.00 | 0.00 | 0.00 | 80 | 1018.8 |
| 20260506095403 | 58 | 0 | 0.0 | 1.7 | 0.00 | 0.00 | 0.00 | 81 | 1018.8 |
| 20260506094847 | 58 | 0 | 0.0 | 0.9 | 0.00 | 0.00 | 0.00 | 80 | 1018.8 |
| 20260506093856 | 59 | 0 | 0.0 | 4.3 | 0.00 | 0.00 | 0.00 | 81 | 1018.7 |
| 20260506093358 | 59 | 0 | 0.0 | 4.3 | 0.00 | 0.00 | 0.00 | 80 | 1018.7 |
| 20260506092351 | 59 | 333 | 0.9 | 4.3 | 0.00 | 0.00 | 0.00 | 80 | 1018.6 |
| 20260506091854 | 59 | 347 | 0.0 | 3.5 | 0.00 | 0.00 | 0.00 | 80 | 1018.7 |
| 20260506091354 | 59 | 359 | 0.0 | 3.5 | 0.00 | 0.00 | 0.00 | 80 | 1018.6 |
| 20260506090858 | 59 | 349 | 0.0 | 2.6 | 0.00 | 0.00 | 0.00 | 80 | 1018.6 |
| 20260506090345 | 59 | 346 | 0.9 | 2.6 | 0.00 | 0.00 | 0.00 | 80 | 1018.5 |
| 20260506085847 | 59 | 346 | 0.0 | 0.9 | 0.00 | 0.00 | 0.00 | 80 | 1018.6 |
| 20260506085401 | 59 | 346 | 0.0 | 0.9 | 0.00 | 0.00 | 0.00 | 80 | 1018.5 |
| 20260506084859 | 60 | 346 | 0.0 | 2.6 | 0.00 | 0.00 | 0.00 | 80 | 1018.6 |
| 20260506082856 | 60 | 336 | 0.9 | 1.7 | 0.00 | 0.00 | 0.00 | 80 | 1018.5 |
| 20260506082356 | 60 | 336 | 0.0 | 2.6 | 0.00 | 0.00 | 0.00 | 80 | 1018.6 |
| 20260506081854 | 60 | 324 | 0.0 | 2.6 | 0.00 | 0.00 | 0.00 | 80 | 1018.5 |
| 20260506081352 | 60 | 324 | 0.0 | 1.7 | 0.00 | 0.00 | 0.00 | 80 | 1018.5 |
| 20260506080851 | 61 | 324 | 0.0 | 2.6 | 0.00 | 0.00 | 0.00 | 80 | 1018.4 |
| 20260506080354 | 61 | 314 | 1.7 | 2.6 | 0.00 | 0.00 | 0.00 | 80 | 1018.4 |
| 20260506072351 | 61 | 246 | 0.0 | 0.0 | 0.00 | 0.00 | 0.00 | 82 | 1018.0 |
| 20260506071847 | 61 | 246 | 0.0 | 0.0 | 0.00 | 0.00 | 0.00 | 82 | 1018.1 |
| 20260506070900 | 61 | 246 | 0.0 | 0.0 | 0.00 | 0.00 | 0.00 | 81 | 1018.0 |
| 20260506070402 | 61 | 246 | 0.0 | 0.0 | 0.00 | 0.00 | 0.00 | 81 | 1018.0 |
| 20260506062349 | 61 | 246 | 0.0 | 0.0 | 0.00 | 0.00 | 0.00 | 81 | 1017.8 |
| 20260506061844 | 61 | 246 | 0.0 | 0.0 | 0.00 | 0.00 | 0.00 | 81 | 1017.7 |
| 20260506060850 | 61 | 246 | 0.0 | 0.0 | 0.00 | 0.00 | 0.00 | 81 | 1017.6 |
| 20260506050850 | 62 | 246 | 0.0 | 0.0 | 0.00 | 0.00 | 0.00 | 80 | 1017.4 |
| 20260506044903 | 62 | 246 | 0.0 | 0.0 | 0.00 | 0.00 | 0.00 | 79 | 1017.3 |
| 20260506044402 | 62 | 246 | 0.0 | 0.0 | 0.00 | 0.00 | 0.00 | 78 | 1017.3 |
| 20260506043901 | 62 | 246 | 0.0 | 0.0 | 0.00 | 0.00 | 0.00 | 79 | 1017.2 |
| 20260506043355 | 62 | 246 | 0.0 | 0.0 | 0.00 | 0.00 | 0.00 | 78 | 1017.1 |
| 20260506042855 | 62 | 246 | 0.0 | 0.9 | 0.00 | 0.00 | 0.00 | 78 | 1017.1 |
| 20260506042356 | 62 | 246 | 0.0 | 0.9 | 0.00 | 0.00 | 0.00 | 78 | 1017.0 |
| 20260506041858 | 62 | 246 | 0.0 | 0.0 | 0.00 | 0.00 | 0.00 | 78 | 1017.0 |
| 20260506041359 | 62 | 246 | 0.0 | 0.0 | 0.00 | 0.00 | 0.00 | 78 | 1016.9 |
| 20260506040358 | 62 | 246 | 0.0 | 0.0 | 0.00 | 0.00 | 0.00 | 77 | 1016.8 |
| 20260506035853 | 63 | 246 | 0.0 | 0.0 | 0.00 | 0.00 | 0.00 | 77 | 1016.8 |
| 20260506035355 | 63 | 246 | 0.0 | 0.0 | 0.00 | 0.00 | 0.00 | 77 | 1016.7 |
| 20260506034900 | 63 | 246 | 0.0 | 0.0 | 0.00 | 0.00 | 0.00 | 77 | 1016.6 |
| 20260506034401 | 63 | 246 | 0.0 | 0.0 | 0.00 | 0.00 | 0.00 | 76 | 1016.6 |
| 20260506033347 | 63 | 246 | 0.0 | 0.0 | 0.00 | 0.00 | 0.00 | 75 | 1016.5 |
| 20260506032903 | 63 | 246 | 0.0 | 0.0 | 0.00 | 0.00 | 0.00 | 75 | 1016.4 |
| 20260506032402 | 63 | 246 | 0.0 | 0.0 | 0.00 | 0.00 | 0.00 | 75 | 1016.4 |
| 20260506031348 | 63 | 246 | 0.0 | 0.0 | 0.00 | 0.00 | 0.00 | 75 | 1016.4 |
| 20260506030854 | 63 | 246 | 0.0 | 0.0 | 0.00 | 0.00 | 0.00 | 74 | 1016.3 |
| 20260506030358 | 63 | 246 | 0.0 | 0.0 | 0.00 | 0.00 | 0.00 | 72 | 1016.2 |
| 20260506025356 | 64 | 246 | 0.0 | 0.0 | 0.00 | 0.00 | 0.00 | 72 | 1016.2 |
| 20260506024853 | 64 | 246 | 0.0 | 0.0 | 0.00 | 0.00 | 0.00 | 71 | 1016.1 |
| 20260506024353 | 64 | 246 | 0.0 | 0.0 | 0.00 | 0.00 | 0.00 | 72 | 1016.1 |
| 20260506023858 | 64 | 246 | 0.0 | 0.0 | 0.00 | 0.00 | 0.00 | 71 | 1016.1 |
| 20260506023405 | 64 | 246 | 0.0 | 0.0 | 0.00 | 0.00 | 0.00 | 71 | 1016.1 |
| 20260506022845 | 64 | 246 | 0.0 | 0.0 | 0.00 | 0.00 | 0.00 | 71 | 1016.1 |
| 20260506022359 | 64 | 246 | 0.0 | 0.0 | 0.00 | 0.00 | 0.00 | 71 | 1016.2 |
| 20260506021402 | 64 | 246 | 0.0 | 0.0 | 0.00 | 0.00 | 0.00 | 70 | 1016.1 |
| 20260506020904 | 64 | 246 | 0.0 | 0.9 | 0.00 | 0.00 | 0.00 | 71 | 1016.1 |
| 20260506015857 | 64 | 246 | 0.0 | 0.0 | 0.00 | 0.00 | 0.00 | 69 | 1016.1 |
| 20260506015352 | 64 | 246 | 0.0 | 0.0 | 0.00 | 0.00 | 0.00 | 69 | 1016.1 |
| 20260506014851 | 64 | 246 | 0.0 | 0.9 | 0.00 | 0.00 | 0.00 | 69 | 1016.1 |
| 20260506014351 | 64 | 246 | 0.0 | 0.9 | 0.00 | 0.00 | 0.00 | 69 | 1016.0 |
| 20260506013849 | 65 | 246 | 0.0 | 0.9 | 0.00 | 0.00 | 0.00 | 68 | 1016.1 |
| 20260506013354 | 65 | 246 | 0.0 | 0.9 | 0.00 | 0.00 | 0.00 | 68 | 1016.1 |
| 20260506012900 | 65 | 246 | 0.0 | 0.9 | 0.00 | 0.00 | 0.00 | 67 | 1016.1 |
| 20260506012355 | 66 | 246 | 0.0 | 0.9 | 0.00 | 0.00 | 0.00 | 67 | 1016.1 |
| 20260506011854 | 65 | 246 | 0.0 | 0.9 | 0.00 | 0.00 | 0.00 | 70 | 1016.1 |
| 20260506011355 | 64 | 246 | 0.0 | 3.5 | 0.00 | 0.00 | 0.00 | 70 | 1016.1 |
| 20260506010855 | 64 | 246 | 0.0 | 3.5 | 0.00 | 0.00 | 0.00 | 71 | 1016.1 |
| 20260506010354 | 64 | 215 | 0.0 | 3.5 | 0.00 | 0.00 | 0.00 | 71 | 1016.1 |
| 20260506005901 | 64 | 215 | 0.9 | 3.5 | 0.00 | 0.00 | 0.00 | 71 | 1016.1 |
| 20260506005346 | 64 | 223 | 0.0 | 2.6 | 0.00 | 0.00 | 0.00 | 70 | 1016.1 |
| 20260506004846 | 64 | 223 | 0.9 | 2.6 | 0.00 | 0.00 | 0.00 | 71 | 1016.2 |
| 20260506003847 | 63 | 221 | 0.0 | 0.9 | 0.00 | 0.00 | 0.00 | 71 | 1016.3 |
| 20260506003403 | 63 | 221 | 0.0 | 1.7 | 0.00 | 0.00 | 0.00 | 71 | 1016.2 |
| 20260506002847 | 64 | 221 | 0.0 | 2.6 | 0.00 | 0.00 | 0.00 | 71 | 1016.3 |
| 20260506002347 | 64 | 220 | 2.6 | 2.6 | 0.00 | 0.00 | 0.00 | 71 | 1016.3 |
| 20260506001848 | 64 | 219 | 0.0 | 2.6 | 0.00 | 0.00 | 0.00 | 71 | 1016.3 |
| 20260506001350 | 64 | 244 | 0.9 | 1.7 | 0.00 | 0.00 | 0.00 | 71 | 1016.4 |
| 20260506000849 | 64 | 277 | 0.0 | 0.9 | 0.00 | 0.00 | 0.00 | 70 | 1016.4 |
| 20260506000348 | 64 | 277 | 0.9 | 0.9 | 0.00 | 0.00 | 0.00 | 70 | 1016.3 |
| 20260505235846 | 64 | 272 | 0.9 | 1.7 | 0.00 | 0.00 | 0.00 | 70 | 1016.5 |
| 20260505235351 | 64 | 272 | 0.0 | 1.7 | 0.00 | 0.00 | 0.00 | 71 | 1016.5 |
| 20260505234358 | 64 | 272 | 0.9 | 3.5 | 0.00 | 0.00 | 0.00 | 71 | 1016.7 |
| 20260505233856 | 64 | 271 | 0.0 | 2.6 | 0.00 | 0.00 | 0.00 | 71 | 1016.6 |
| 20260505233354 | 64 | 298 | 0.0 | 2.6 | 0.00 | 0.00 | 0.00 | 71 | 1016.6 |
| 20260505232850 | 64 | 298 | 0.0 | 2.6 | 0.00 | 0.00 | 0.00 | 71 | 1016.5 |
| 20260505232350 | 64 | 288 | 0.0 | 1.7 | 0.00 | 0.00 | 0.00 | 71 | 1016.7 |
| 20260505231853 | 63 | 288 | 0.0 | 2.6 | 0.00 | 0.00 | 0.00 | 71 | 1016.7 |
| 20260505231355 | 64 | 296 | 0.9 | 2.6 | 0.00 | 0.00 | 0.00 | 71 | 1016.7 |
| 20260505230902 | 64 | 226 | 0.0 | 1.7 | 0.00 | 0.00 | 0.00 | 71 | 1016.7 |
| 20260505225856 | 64 | 241 | 1.7 | 2.6 | 0.00 | 0.00 | 0.00 | 71 | 1016.7 |
| 20260505224901 | 64 | 244 | 0.0 | 2.6 | 0.00 | 0.00 | 0.00 | 70 | 1016.8 |
| 20260505223354 | 63 | 246 | 0.0 | 0.9 | 0.00 | 0.00 | 0.00 | 71 | 1017.0 |
| 20260505222849 | 63 | 246 | 0.0 | 1.7 | 0.00 | 0.00 | 0.00 | 71 | 1016.9 |
| 20260505222349 | 63 | 246 | 0.9 | 2.6 | 0.00 | 0.00 | 0.00 | 71 | 1017.0 |
| 20260505221849 | 63 | 255 | 0.0 | 2.6 | 0.00 | 0.00 | 0.00 | 71 | 1017.0 |
| 20260505221349 | 63 | 233 | 0.0 | 0.9 | 0.00 | 0.00 | 0.00 | 71 | 1017.0 |
| 20260505220854 | 63 | 251 | 0.0 | 0.9 | 0.00 | 0.00 | 0.00 | 71 | 1016.9 |
| 20260505220400 | 63 | 251 | 0.9 | 0.9 | 0.00 | 0.00 | 0.00 | 71 | 1017.1 |
| 20260505215903 | 63 | 250 | 0.9 | 1.7 | 0.00 | 0.00 | 0.00 | 71 | 1017.1 |
| 20260505215358 | 63 | 312 | 0.0 | 1.7 | 0.00 | 0.00 | 0.00 | 71 | 1017.1 |
| 20260505214858 | 63 | 235 | 0.0 | 3.5 | 0.00 | 0.00 | 0.00 | 71 | 1017.1 |
| 20260505213903 | 63 | 196 | 1.7 | 1.7 | 0.00 | 0.00 | 0.00 | 72 | 1017.1 |
| 20260505213349 | 63 | 196 | 0.0 | 1.7 | 0.00 | 0.00 | 0.00 | 71 | 1017.1 |
| 20260505212856 | 63 | 196 | 0.0 | 1.7 | 0.00 | 0.00 | 0.00 | 72 | 1017.2 |
| 20260505212351 | 63 | 196 | 0.0 | 2.6 | 0.00 | 0.00 | 0.00 | 72 | 1017.2 |
| 20260505211851 | 63 | 186 | 0.0 | 2.6 | 0.00 | 0.00 | 0.00 | 71 | 1017.2 |
| 20260505211349 | 63 | 237 | 0.0 | 0.9 | 0.00 | 0.00 | 0.00 | 71 | 1017.3 |
| 20260505210349 | 63 | 331 | 0.0 | 3.5 | 0.00 | 0.00 | 0.00 | 72 | 1017.3 |
| 20260505205359 | 63 | 268 | 0.0 | 2.6 | 0.00 | 0.00 | 0.00 | 72 | 1017.3 |
| 20260505204859 | 63 | 215 | 2.6 | 2.6 | 0.00 | 0.00 | 0.00 | 72 | 1017.3 |
| 20260505204357 | 63 | 217 | 0.0 | 1.7 | 0.00 | 0.00 | 0.00 | 73 | 1017.4 |
| 20260505203853 | 62 | 217 | 0.0 | 1.7 | 0.00 | 0.00 | 0.00 | 73 | 1017.3 |
| 20260505203354 | 62 | 218 | 0.0 | 0.9 | 0.00 | 0.00 | 0.00 | 73 | 1017.4 |
| 20260505202859 | 62 | 218 | 0.0 | 4.3 | 0.00 | 0.00 | 0.00 | 73 | 1017.4 |
| 20260505201845 | 62 | 269 | 0.0 | 0.0 | 0.00 | 0.00 | 0.00 | 74 | 1017.5 |
| 20260505201404 | 61 | 269 | 0.0 | 0.0 | 0.00 | 0.00 | 0.00 | 74 | 1017.5 |
| 20260505200903 | 61 | 269 | 0.0 | 1.7 | 0.00 | 0.00 | 0.00 | 75 | 1017.5 |
| 20260505200357 | 61 | 267 | 1.7 | 1.7 | 0.00 | 0.00 | 0.00 | 74 | 1017.5 |
| 20260505194355 | 61 | 146 | 0.0 | 1.7 | 0.00 | 0.00 | 0.00 | 75 | 1017.6 |
| 20260505193855 | 61 | 146 | 0.9 | 0.9 | 0.00 | 0.00 | 0.00 | 74 | 1017.6 |
| 20260505193348 | 62 | 120 | 0.0 | 1.7 | 0.00 | 0.00 | 0.00 | 73 | 1017.6 |
| 20260505192849 | 62 | 120 | 0.0 | 1.7 | 0.00 | 0.00 | 0.00 | 74 | 1017.6 |
| 20260505192349 | 62 | 120 | 0.0 | 1.7 | 0.00 | 0.00 | 0.00 | 74 | 1017.6 |
| 20260505191850 | 62 | 120 | 0.0 | 1.7 | 0.00 | 0.00 | 0.00 | 74 | 1017.6 |
| 20260505191352 | 62 | 82 | 0.0 | 3.5 | 0.00 | 0.00 | 0.00 | 74 | 1017.7 |
| 20260505190850 | 61 | 82 | 0.0 | 3.5 | 0.00 | 0.00 | 0.00 | 74 | 1017.6 |
| 20260505190405 | 62 | 133 | 0.0 | 2.6 | 0.00 | 0.00 | 0.00 | 73 | 1017.6 |
| 20260505185902 | 62 | 133 | 0.0 | 2.6 | 0.00 | 0.00 | 0.00 | 75 | 1017.7 |
| 20260505185402 | 61 | 156 | 0.0 | 0.9 | 0.00 | 0.00 | 0.00 | 76 | 1017.7 |
| 20260505184902 | 61 | 156 | 0.9 | 0.9 | 0.00 | 0.00 | 0.00 | 75 | 1017.6 |
| 20260505184346 | 61 | 166 | 0.0 | 2.6 | 0.00 | 0.00 | 0.00 | 78 | 1017.6 |
| 20260505183853 | 60 | 167 | 0.0 | 2.6 | 0.00 | 0.00 | 0.00 | 79 | 1017.7 |
| 20260505183350 | 60 | 167 | 0.0 | 2.6 | 0.00 | 0.00 | 0.00 | 78 | 1017.8 |
| 20260505182844 | 59 | 167 | 0.0 | 2.6 | 0.00 | 0.00 | 0.00 | 79 | 1017.8 |
| 20260505182403 | 59 | 167 | 0.0 | 0.9 | 0.00 | 0.00 | 0.00 | 80 | 1017.7 |
| 20260505181902 | 58 | 167 | 0.0 | 0.9 | 0.00 | 0.00 | 0.00 | 81 | 1017.7 |
| 20260505181400 | 58 | 167 | 0.0 | 1.7 | 0.00 | 0.00 | 0.00 | 81 | 1017.6 |
| 20260505180351 | 58 | 167 | 0.9 | 0.9 | 0.00 | 0.00 | 0.00 | 81 | 1017.7 |
| 20260505175401 | 57 | 167 | 0.0 | 1.7 | 0.00 | 0.00 | 0.00 | 82 | 1017.6 |
| 20260505174900 | 57 | 167 | 0.0 | 1.7 | 0.00 | 0.00 | 0.00 | 82 | 1017.8 |
| 20260505174359 | 57 | 167 | 0.0 | 1.7 | 0.00 | 0.00 | 0.00 | 83 | 1017.8 |
| 20260505173845 | 57 | 167 | 0.0 | 0.9 | 0.00 | 0.00 | 0.00 | 83 | 1017.7 |
| 20260505173351 | 57 | 167 | 0.0 | 1.7 | 0.00 | 0.00 | 0.00 | 83 | 1017.6 |
| 20260505172853 | 57 | 167 | 0.0 | 1.7 | 0.00 | 0.00 | 0.00 | 83 | 1017.6 |
| 20260505172350 | 57 | 167 | 0.0 | 0.9 | 0.00 | 0.00 | 0.00 | 84 | 1017.6 |
| 20260505171846 | 57 | 167 | 0.0 | 0.9 | 0.00 | 0.00 | 0.00 | 84 | 1017.6 |
| 20260505171402 | 57 | 167 | 0.0 | 0.9 | 0.00 | 0.00 | 0.00 | 84 | 1017.5 |
| 20260505170844 | 56 | 167 | 0.0 | 1.7 | 0.00 | 0.00 | 0.00 | 84 | 1017.5 |
| 20260505170348 | 56 | 167 | 0.0 | 1.7 | 0.00 | 0.00 | 0.00 | 85 | 1017.5 |
| 20260505165856 | 56 | 167 | 1.7 | 1.7 | 0.00 | 0.00 | 0.00 | 84 | 1017.4 |
| 20260505165352 | 56 | 167 | 0.9 | 1.7 | 0.00 | 0.00 | 0.00 | 84 | 1017.4 |
| 20260505164848 | 56 | 167 | 0.0 | 1.7 | 0.00 | 0.00 | 0.00 | 84 | 1017.4 |
| 20260505164348 | 56 | 167 | 0.0 | 2.6 | 0.00 | 0.00 | 0.00 | 84 | 1017.3 |
| 20260505163904 | 56 | 165 | 0.0 | 2.6 | 0.00 | 0.00 | 0.00 | 84 | 1017.4 |
| 20260505163346 | 56 | 166 | 0.9 | 1.7 | 0.00 | 0.00 | 0.00 | 84 | 1017.4 |
| 20260505162850 | 56 | 166 | 0.9 | 0.9 | 0.00 | 0.00 | 0.00 | 85 | 1017.4 |
| 20260505161347 | 56 | 167 | 0.0 | 2.6 | 0.00 | 0.00 | 0.00 | 85 | 1017.1 |
| 20260505160844 | 56 | 166 | 2.6 | 2.6 | 0.00 | 0.00 | 0.00 | 85 | 1017.1 |
| 20260505160345 | 56 | 166 | 0.0 | 2.6 | 0.00 | 0.00 | 0.00 | 85 | 1017.2 |
| 20260505153350 | 56 | 171 | 2.6 | 4.3 | 0.00 | 0.00 | 0.00 | 84 | 1017.1 |
| 20260505152851 | 56 | 173 | 0.9 | 4.3 | 0.00 | 0.00 | 0.00 | 85 | 1017.1 |
| 20260505152348 | 56 | 167 | 0.0 | 2.6 | 0.00 | 0.00 | 0.00 | 85 | 1017.0 |
| 20260505151857 | 55 | 167 | 0.0 | 2.6 | 0.00 | 0.00 | 0.00 | 85 | 1017.1 |
| 20260505151343 | 55 | 168 | 0.9 | 3.5 | 0.00 | 0.00 | 0.00 | 85 | 1017.1 |
| 20260505140352 | 55 | 171 | 0.9 | 3.5 | 0.00 | 0.00 | 0.00 | 86 | 1016.5 |
| 20260505124844 | 55 | 162 | 0.9 | 2.6 | 0.00 | 0.00 | 0.00 | 85 | 1016.1 |
| 20260505124345 | 55 | 162 | 0.0 | 0.9 | 0.00 | 0.00 | 0.00 | 86 | 1016.1 |
| 20260505123849 | 55 | 162 | 0.0 | 0.0 | 0.00 | 0.00 | 0.00 | 86 | 1016.1 |
| 20260505123353 | 55 | 162 | 0.0 | 0.9 | 0.00 | 0.00 | 0.00 | 85 | 1016.1 |
| 20260505122855 | 55 | 162 | 0.0 | 1.7 | 0.00 | 0.00 | 0.00 | 85 | 1016.0 |
| 20260505122352 | 55 | 162 | 0.0 | 1.7 | 0.00 | 0.00 | 0.00 | 86 | 1016.0 |
| 20260505121849 | 55 | 162 | 0.0 | 1.7 | 0.00 | 0.00 | 0.00 | 86 | 1016.0 |
| 20260505121344 | 55 | 162 | 0.0 | 0.9 | 0.00 | 0.00 | 0.00 | 85 | 1016.0 |
| 20260505120843 | 55 | 162 | 0.0 | 0.9 | 0.00 | 0.00 | 0.00 | 86 | 1016.0 |
| 20260505120344 | 55 | 162 | 0.0 | 1.7 | 0.00 | 0.00 | 0.00 | 86 | 1015.9 |
| 20260505115846 | 55 | 162 | 0.0 | 2.6 | 0.00 | 0.00 | 0.00 | 86 | 1015.9 |
| 20260505115353 | 55 | 162 | 0.0 | 2.6 | 0.00 | 0.00 | 0.00 | 85 | 1015.8 |
| 20260505114852 | 55 | 162 | 0.0 | 2.6 | 0.00 | 0.00 | 0.00 | 85 | 1015.9 |
| 20260505114345 | 55 | 162 | 1.7 | 1.7 | 0.00 | 0.00 | 0.00 | 86 | 1016.0 |
| 20260505113846 | 55 | 162 | 0.0 | 0.9 | 0.00 | 0.00 | 0.00 | 86 | 1015.9 |
| 20260505113345 | 55 | 162 | 0.0 | 0.9 | 0.00 | 0.00 | 0.00 | 86 | 1015.9 |
| 20260505112850 | 55 | 162 | 0.0 | 1.7 | 0.00 | 0.00 | 0.00 | 86 | 1015.9 |
| 20260505112346 | 55 | 162 | 0.0 | 1.7 | 0.00 | 0.00 | 0.00 | 86 | 1015.9 |
| 20260505111356 | 55 | 162 | 0.0 | 0.0 | 0.00 | 0.00 | 0.00 | 86 | 1015.9 |
| 20260505110851 | 55 | 162 | 0.0 | 0.9 | 0.00 | 0.00 | 0.00 | 86 | 1015.8 |
| 20260505110352 | 55 | 162 | 0.0 | 0.9 | 0.00 | 0.00 | 0.00 | 87 | 1015.6 |